Terminal Aerodrome Forecast
Issued by NWS

Home | Current Version | Previous Version | Text Only | Print | Product List | Glossary On
Versions: 1 2 3 4 5 6 7 8 9 10 11 12 13 14 15 16 17 18 19 20 21 22 23 24 25 26 27 28 29 30 31 32 33 34 35 36 37 38
000
FTUS44 KHGX 220155 AAA
TAFCXO
TAF AMD
KCXO 220155Z 2202/2224 13004KT P6SM SCT025
     FM220300 17005KT P6SM BKN015 OVC045
     FM220600 17004KT 5SM BR BKN006 OVC015
     FM221500 19009KT P6SM SCT007 BKN015
     FM221800 20011G21KT P6SM BKN015 BKN025
     FM222100 20010G20KT P6SM SCT025 OVC250=

USA.gov is the U.S. government's official web portal to all federal, state and local government web resources and services.